Regional Weather Roundup
Issued by NWS Charleston, SC

Current Version | Previous Version | Graphics & Text | Print | Product List | Glossary On
Versions: 1 2 3 4 5 6 7 8 9 10 11 12 13 14 15 16 17 18 19 20 21 22 23 24 25 26 27 28 29 30 31 32 33 34 35 36 37 38 39 40 41 42 43 44 45 46 47 48 49 50
000
ASUS42 KCHS 261410
RWRCHS

REGIONAL WEATHER ROUNDUP
NATIONAL WEATHER SERVICE CHARLESTON SC
1000 AM EDT SAT JUL 26 2014

NOTE: "FAIR" INDICATES FEW OR NO CLOUDS BELOW 12,000 FEET WITH NO
SIGNIFICANT WEATHER AND/OR OBSTRUCTIONS TO VISIBILITY.

NOT ALL STATIONS ARE QUALITY CONTROLLED BY THE NATIONAL
WEATHER SERVICE. USE DATA WITH CAUTION...ESPECIALLY
DEWPOINT OBSERVATIONS.

SCZ027-030-031-034>040-042>050-261500-
...SOUTH CAROLINA...

CITY           SKY/WX    TMP DP  RH WIND       PRES   REMARKS
N CHARLESTON   MOSUNNY   84  74  71 W6        30.03S HX  91
WATERFRONT PRK   N/A     81 N/A N/A W8          N/A
FORT JOHNSON   NOT AVBL
MOUNT PLEASANT FAIR      81  75  83 NW5       30.03S
JOHNS ISLAND   SUNNY     82  68  61 W8        30.03S
PINOPOLIS        N/A     81  73  78 W3        29.97R
MONCKS CORNER    N/A     81  77  89 SW5       30.03S
SUMMERVILLE    FAIR      79  75  89 W5        30.05R
BEAUFORT MCAS  SUNNY     83  75  77 W8        30.03F HX  90
BEAUFORT ARPT  FAIR      82  77  83 W7        30.03S HX  91
HILTON HEAD IS NOT AVBL
GEORGETOWN     NOT AVBL
WALTERBORO     MOSUNNY   81  81 100 W7        30.05R HX  91
ORANGEBURG     CLOUDY    78  73  84 VRB3      30.04F
BARNWELL       CLOUDY    79  75  89 W3        30.05S
AIKEN          FAIR      81  77  89 CALM      30.07F
MANNING        PTSUNNY   79  79 100 CALM      30.04R
KINGSTREE      NOT AVBL
COLUMBIA       MOSUNNY   80  71  74 VRB3      30.03F
SUMTER         MOSUNNY   79  74  83 W3        30.02S
FLORENCE       SUNNY     81  73  76 CALM      30.03S
MYRTLE BEACH   PTSUNNY   79  72  78 VRB5      30.02S
N MYRTLE BEACH CLOUDY    80  71  74 NW5       30.01S

$$

GAZ063-065-086>088-099>101-113>116-118-119-134-136>141-150-261500-
...GEORGIA...

CITY           SKY/WX    TMP DP  RH WIND       PRES   REMARKS
SAVANNAH ARPT  MOSUNNY   84  75  74 SW9       30.05S HX  92
HUNTER AAF     SUNNY     83  76  77 SW8       30.03S HX  92
FORT STEWART   PTSUNNY   82  75  78 SW9       30.04S
STATESBORO     NOT AVBL
SYLVANIA       MOSUNNY   82  79  90 W5        30.05S HX  93
CLAXTON        FAIR      84  79  84 CALM      30.05S HX  96
THOMSON        SUNNY     83  79  87 CALM      30.08S HX  93
AUGUSTA-BUSH   SUNNY     80  74  81 CALM      30.03S
AUGUSTA-DANIEL SUNNY     82  73  74 CALM      30.04F
SWAINSBORO     PTSUNNY   82  82 100 W3        30.06S HX  97
VIDALIA          N/A     82  77  83 SW6       30.05F HX  91
ALMA           CLOUDY    81  75  82 W5        30.06S
WAYCROSS       CLOUDY    84  79  83 W10       30.06F HX  96
JESUP          NOT AVBL
BRUNSWICK      PTSUNNY   84  73  70 W7        30.07R HX  91
SAINT SIMONS   MOSUNNY   83  75  77 W9        30.06S HX  90

$$

SCZ027-028-034-036>038-045-046-048>050-GAZ119-141-261500-
...LAKE AND SUPPLEMENTAL COASTAL OBSERVATIONS...

STATION/POSITION TIME  TEMP    WIND        PRES    WAVE   SWELL
                       AIR SEA DIR/SP/G            HT/PER HT/PER/DIR
                 (UTC) (F)     (DEG/KT/KT) (MB)    (FT/S) (FT/S/D)
UPR LAKE MARION  NOT AVBL
WINYAH BAY       1300   77     300/  3     1016.0S
LAKE MURRAY      1300   77     150/  3/  4 1016.6S
ACE BASIN NERRS  1300   80     260/  3     1017.0S
FORT PULASKI     1400   82     240/  7/ 11 1017.6S
SAPELO ISLAND    1300   81     240/ 10     1018.0S

$$

ANZ835-935-AMZ111-154-330-350-352-354-374-450-454-472-261500-
...C-MAN AND BUOY OBSERVATIONS...

STATION/POSITION TIME  TEMP    WIND        PRES    WAVE   SWELL
                       AIR SEA DIR/SP/G            HT/PER HT/PER/DIR
                 (UTC) (F)     (DEG/KT/KT) (MB)    (FT/S) (FT/S/D)
FOLLY BEACH CMAN 1300   80     290/  4/  7 1017.2R
BUOY 41004       1400   83 82  260/ 12/ 16 1016.0R   3/ 6   2/ 8
BUOY 41008       1400   81 84  250/ 14/ 16 1017.6R   3/ 5   2/140/ 8
5E ST. MARYS GA  1400      84                N/A     2/ 4
FRYING PAN BUOY  NOT AVBL
BUOY 41025       1400          VRB  6/  8  1016.4F   2/ 8   2/110/ 8
CAPE LOOKOUT NC  1300   81      70/  2/  3 1016.3S
BUOY 41002       1253   82 82  230/ 14/ 16 1019.4R   4/ 7   2/240/ 7
BUOY 41010       1400   84 84  200/ 12/ 14 1019.3S   2/ 8   2/120/ 8
BUOY 41012       NOT AVBL
ST AUGUSTINE FL  1400   84     250/  5/  7 1019.7R
CAPERS NEARSHORE 1300   81     310/ 12/ 14   N/A
FRIPP NEARSHORE  NOT AVBL


$$



USA.gov is the U.S. government's official web portal to all federal, state and local government web resources and services.